STARLINK-3789, 52283

Orbit data source: Space-Track

STARLINK-3789, 52283 is a payload satellite owned by SpaceX/Seattle (US) in LEO that was launched on Thu, 21 Apr 2022 UTC via an FALCON 9 launch vehicle from the Air Force Eastern Test Range (AFETR). Payload-class satellites include a variety of spacecraft equipped with specific instruments for various scientific and technological missions. These include communications satellites like Starlink; space stations such as the ISS; scientific satellites like the Hubble; Earth observation satellites from companies like Planet Labs, Umbra, and HawkEye 360; GPS; miniature CubeSats for education and research; and military/defense satellites.

Loading next visibility...
Identifier
52283, 2022-041Y
Orbit
LEO
Country
Flag of USUS
Related business
Manufacturer
SpaceX/Seattle
Mission
Operational Commercial Communications
Bus & Motor
STARLINK, Unknown motor
Mass
297 kg wet, ~275 kg dry
Launch date (UTC)
2022-04-21 (4 years ago)
Launch vehicle
FALCON 9
Launch site
Air Force Eastern Test Range (AFETR)
Object type
Payload
Rocket body
Debris
Shape & HBR
Box + 1 Pan, 10.1 m
Radar Cross Section
11.087 m², Large (>1 m²)

Expand to show TLE details & history
Last TLE update: 5 hours ago

TLE from 5 hours ago
0 STARLINK-3789
1 52283U 22041Y   26193.19542068 -.00000343  00000-0 -34228-5 0  9991
2 52283  53.1612 269.9489 0001510  81.7110 278.4053 15.08832944233160
Epoch: 2026-07-12T04:41Z
TLE epoch observation values (Epoch: 2026-07-12T04:41:24.346Z)
Latitude
-0.00001°
Longitude
-90.50032°
Altitude
540.504 km
Speed
7.593 km/s
True Right ascension
17h 59m 47s
True Declination
0° 00' 00"
Sunlit
Object was in full shadow at epoch
Visualization orbit readout
Latitude
Unknown
Longitude
Unknown
Altitude
Unknown
Speed
Unknown
Apparent Right ascension
Unknown
Apparent Declination
Unknown
Sunlit
N/A
Visualization observer readout
Local Sidereal Time
21:57:55
Azimuth
Unknown
Elevation
Unknown
Doppler factor
Unknown
Orbital elements
Apogee altitude
541.064 km
Perigee altitude
538.974 km
Semi-major axis
6,918.156 km
Eccentricity
0.00015
Inclination
53.1612°
RAAN
269.9489°
Arg. of periapsis
81.711°
True anomaly
278.38818°
Mean anomaly
278.4053°
Eccentric anomaly
278.39674°
Mean motion
3.77188 °/min
Orbital period
95.44 mins
BSTAR
-0.0000034228
Loading maneuver chart data...
Computing Atmospheric mass density...
Loading historical data...
Loading historical data...
Loading historical data...
Loading historical data...
Loading historical data...
Loading historical data...
Loading historical data...

Documentation

Showing up to 5 results
|